Regional Weather Roundup
Issued by NWS Upton, NY

Current Version | Previous Version | Text Only | Print | Product List | Glossary On
Versions: 1 2 3 4 5 6 7 8 9 10 11 12 13 14 15 16 17 18 19 20 21 22 23 24 25 26 27 28
000 ASUS41 KOKX 240108 RWROKX REGIONAL WEATHER ROUNDUP NATIONAL WEATHER SERVICE NEW YORK NY 800 PM EST THU FEB 23 2017 NOTE: "FAIR" INDICATES FEW OR NO CLOUDS BELOW 12,000 FEET WITH NO SIGNIFICANT WEATHER AND/OR OBSTRUCTIONS TO VISIBILITY. NYZ071-072-176-178-NJZ106-104-240200- NEW YORK CITY METRO AREA CITY SKY/WX TMP DP RH WIND PRES REMARKS Central Park MOCLDY 58 49 72 NE3 29.89S Wall St Helipt NOT AVBL LaGuardia APRT PTCLDY 56 47 71 CALM 29.86S Kennedy INTL MOCLDY 48 46 93 S6 29.89R Breezy Point N/A 46 N/A N/A SE2 N/A Newark/Liberty MOCLDY 57 49 74 SE5 29.86R Teterboro CLOUDY 61 52 72 CALM 29.85S $$ NYZ177-179-078>081-240200- LONG ISLAND NEW YORK CITY SKY/WX TMP DP RH WIND PRES REMARKS Jones Beach N/A 46 N/A N/A SW10G17 N/A Matinecock PT NOT AVBL Farmingdale CLOUDY 51 47 86 SW8 29.89R MacArthur/ISP PTCLDY 50 47 89 SW8 29.89R Shirley CLEAR 50 47 89 SW7 29.91R Westhampton PTCLDY 47 44 90 SW5 29.92R Southampton NOT AVBL Bridgehampton NOT AVBL East Hampton N/A 47 45 93 SW7 29.91R Montauk N/A 50 48 93 SW9G17 29.92R $$ NYZ052-065-067-240200- HUDSON VALLEY CITY SKY/WX TMP DP RH WIND PRES REMARKS White Plains PTCLDY 53 48 83 S6 29.86S Newburgh PTCLDY 63 54 72 CALM 29.85R Montgomery PTCLDY 55 49 80 SW5 29.83R Poughkeepsie PTCLDY 53 47 79 CALM 29.83R Albany MOCLDY 63 47 55 S7 29.80R $$ NJZ001-105-106-008-010-013-015-019>022-104-240200- NEW JERSEY CITY SKY/WX TMP DP RH WIND PRES REMARKS Newark/Liberty MOCLDY 57 49 74 SE5 29.86R Teterboro CLOUDY 61 52 72 CALM 29.85S Caldwell PTCLDY 59 51 75 CALM 29.86S Somerville MOCLDY 55 50 83 CALM 29.84R Linden NOT AVBL Sussex PTCLDY 56 50 80 CALM 29.85R Andover N/A 50 46 86 CALM 29.85S Trenton CLOUDY 63 53 70 S8 29.86R Millville CLEAR 55 50 83 VRB3 29.90R Atlantic City CLEAR 58 49 72 S12 29.90S Wrightstown CLEAR 60 52 72 S6 29.86R Toms River CLEAR 57 50 77 S7 29.89R Belmar CLEAR 60 51 72 S5 29.89R $$ PAZ047>061-062-071-240200- EASTERN PENNSYLVANIA CITY SKY/WX TMP DP RH WIND PRES REMARKS Philadelphia PTCLDY 63 52 67 S7 29.88R Allentown CLOUDY 68 51 54 SW9 29.84S Scranton CLOUDY 63 52 67 CALM 29.84R $$ CTZ002-004>006-009-010-012-RIZ004-006-007-MAZ004-011-015-240200- SOUTHERN NEW ENGLAND IN CT CITY SKY/WX TMP DP RH WIND PRES REMARKS Bradley INTL CLEAR 53 48 83 S12 29.85R Hartford CLEAR 52 48 86 S7 29.87R Danbury CLEAR 52 47 83 CALM 29.87R Wtrbury/Oxford MOCLDY 54 46 76 SW7 29.88S Bridgeport PTCLDY 48 44 86 CALM 29.88S Meriden CLEAR 51 46 83 S5 29.87S New Haven MOCLDY 46 44 93 CALM 29.88S FOG Chester MOCLDY 52 50 93 SW8 29.88S Groton CLOUDY 46 45 96 SW3 29.90R FOG Wilimantic CLEAR 51 48 89 CALM 29.88R IN RI CITY SKY/WX TMP DP RH WIND PRES REMARKS Providence PTCLDY 54 49 83 W12 29.87S Block Island MOCLDY 47 46 97 SW13 29.92R Westerly FOG 48 45 89 SW5 29.91R VSB 1/2 IN MA CITY SKY/WX TMP DP RH WIND PRES REMARKS Boston PTCLDY 54 49 83 SW18 29.82R Worcester CLEAR 50 46 86 SW15 29.83R Westfield CLEAR 50 48 93 S9 29.83R Provincetown LGT RAIN 44 44 100 SW17 29.87R VSB 3/4 Nantucket CLEAR 45 43 93 SW13 29.92R FOG $$ ANZ330-335-338-340-345-350-353-355-240200- COASTAL MARINE OBSERVATIONS STATION/POSITION TIME SKY/WX TEMP WIND PRES VSBY WAVE AIR SEA DIR/SP/G HT/PER (UTC) (F) (DEG/KT/KT) (MB) (MI) (FT/S) NY HARB ENTRANCE 2350 48 43 210/ 16/ 19 1011.0 4/11 20 S FIRE ISLAND 0050 48 43 210/ 16/ 17 1012.0 5/10 GREAT SOUTH BAY NOT AVBL 23 SSW MONTAUK P 2350 49 46 1012.7 4/10 15 E BARNEGAT LI 0030 42 N/A 4/11 HUDSON CANYON 0050 49 1013.8 4/11 KINGS POINT 0036 52 40 1011.0 EXECUTION ROCKS NOT AVBL CENTRAL LI SOUND 2353 45 220/ 4/ 6 N/A 1 EASTERN LI SOUND NOT AVBL ROBBINS REEF 0036 56 160/ 7/ 8 1011.4 $$ >>>>>>>>>>>>>>>>>>>>>>>>>>>> KEY <<<<<<<<<<<<<<<<<<<<<<<<<<< > < > SKY/WX - Sky Condition/Present Weather < > TMP - Temperature in Fahrenheit < > DP - Dew Point in Fahrenheit < > RH - Relative Humidity in Percent < > WIND - Direction (from) and Speed in MPH < > PRES - Mean Sea Level Pressure (inches of Hg) < > WCI - Wind Chill Index < > VSB - VISIBILITY IN MILES < > HX - HEAT INDEX < > TC - TEMPERATURE IN CELSIUS < > VRB - VARIABLE WIND DIRECTION < > < >>>>>>>>>>>>>>>>>>>>>>>>>>>> KEY <<<<<<<<<<<<<<<<<<<<<<<<<<<

USA.gov is the U.S. government's official web portal to all federal, state and local government web resources and services.